GW5219 Weather Reports


Display with metric or nautical units.
time (UTC)temp
F
wind
direction
speed
MPH
gust
MPH
rain 1hr
in
rain 24hr
in
rain mn
in
humidity
%
barometer
mb
20260506091057 59 30 0.0 1.0 0.00 0.00 0.00 77 1018.3
20260506090555 59 65 0.0 1.0 0.00 0.00 0.00 77 1018.2
20260506090050 59 129 0.0 0.0 0.00 0.00 0.00 77 1018.3
20260506085548 59 108 0.0 0.0 0.00 0.00 0.00 77 1018.4
20260506085044 59 52 0.0 1.0 0.00 0.00 0.00 76 1018.3
20260506084541 59 128 0.0 0.0 0.00 0.00 0.00 76 1018.6
20260506084037 59 74 1.0 1.0 0.00 0.00 0.00 76 1018.4
20260506083535 59 77 0.0 1.0 0.00 0.00 0.00 76 1018.3
20260506083032 59 55 0.0 1.0 0.00 0.00 0.00 76 1018.3
20260506082528 59 35 2.0 2.0 0.00 0.00 0.00 76 1018.4
20260506082024 59 63 1.0 2.0 0.00 0.00 0.00 76 1018.5
20260506081523 59 42 0.0 1.0 0.00 0.00 0.00 75 1018.6
20260506081020 60 51 0.0 1.0 0.00 0.00 0.00 75 1018.5
20260506080517 60 149 0.0 0.0 0.00 0.00 0.00 75 1018.5
20260506073500 60 67 0.0 1.0 0.00 0.00 0.00 74 1018.2
20260506072957 60 66 0.0 1.0 0.00 0.00 0.00 74 1018.0
20260506072455 60 53 0.0 0.0 0.00 0.00 0.00 74 1018.1
20260506071953 60 52 1.0 1.0 0.00 0.00 0.00 74 1018.1
20260506071450 60 50 0.0 1.0 0.00 0.00 0.00 74 1018.0
20260506070947 60 44 1.0 1.0 0.00 0.00 0.00 74 1018.1
20260506070444 60 59 0.0 0.0 0.00 0.00 0.00 74 1017.8
20260506062422 60 93 1.0 1.0 0.00 0.06 0.06 75 1017.8
20260506061917 60 92 0.0 1.0 0.00 0.06 0.06 75 1017.7
20260506061414 60 26 1.0 2.0 0.00 0.06 0.06 75 1017.5
20260506060912 60 32 0.0 0.0 0.00 0.06 0.06 75 1017.4
20260506060410 60 59 1.0 1.0 0.00 0.06 0.06 75 1017.5
20260506051342 61 225 1.0 2.0 0.00 0.06 0.06 75 1017.1
20260506050839 61 55 0.0 1.0 0.00 0.06 0.06 75 1016.8
20260506050336 61 9 1.0 1.0 0.00 0.06 0.06 75 1016.6
20260506044827 61 62 1.0 1.0 0.00 0.06 0.06 75 1016.7
20260506044325 61 351 1.0 2.0 0.00 0.06 0.06 75 1016.7
20260506043822 61 52 0.0 1.0 0.00 0.06 0.06 76 1016.6
20260506043319 61 65 1.0 1.0 0.00 0.06 0.06 75 1016.5
20260506042817 61 22 1.0 1.0 0.00 0.06 0.06 75 1016.4
20260506042316 61 116 1.0 1.0 0.00 0.06 0.06 75 1016.2
20260506041815 61 44 4.0 6.0 0.00 0.06 0.06 75 1016.2
20260506041311 61 65 1.0 1.0 0.00 0.06 0.06 75 1016.1
20260506040808 62 33 1.0 2.0 0.00 0.06 0.06 74 1016.4
20260506040305 62 104 0.0 1.0 0.00 0.06 0.06 75 1016.3
20260506035802 62 14 1.0 2.0 0.00 0.06 0.06 74 1016.3
20260506035259 62 58 0.0 1.0 0.00 0.06 0.06 74 1016.4
20260506034756 62 77 1.0 1.0 0.00 0.06 0.06 74 1016.2
20260506034253 62 54 1.0 1.0 0.00 0.06 0.06 74 1016.2
20260506033750 62 154 1.0 1.0 0.00 0.06 0.06 73 1016.2
20260506033247 62 49 1.0 1.0 0.00 0.06 0.06 73 1016.2
20260506032744 62 66 0.0 1.0 0.00 0.06 0.06 73 1016.1
20260506032241 63 0 1.0 1.0 0.00 0.06 0.06 73 1015.9
20260506031737 63 154 1.0 2.0 0.00 0.06 0.06 72 1015.8
20260506031235 63 107 0.0 1.0 0.00 0.06 0.06 73 1015.7
20260506030733 63 28 1.0 1.0 0.00 0.06 0.06 72 1015.6
20260506030230 64 88 1.0 1.0 0.00 0.06 0.06 71 1015.7
20260506025727 64 51 1.0 2.0 0.00 0.06 0.06 71 1015.5
20260506025224 64 37 1.0 1.0 0.00 0.06 0.06 71 1015.3
20260506024720 64 130 1.0 1.0 0.00 0.06 0.06 71 1015.5
20260506024217 64 35 2.0 3.0 0.00 0.06 0.06 71 1015.3
20260506023713 64 323 1.0 2.0 0.00 0.06 0.06 71 1015.3
20260506023211 64 149 0.0 1.0 0.00 0.06 0.06 70 1015.2
20260506022707 65 39 1.0 1.0 0.00 0.06 0.06 70 1015.0
20260506022205 65 153 1.0 1.0 0.00 0.06 0.06 70 1015.3
20260506021703 65 52 2.0 3.0 0.00 0.06 0.06 69 1014.9
20260506021200 65 58 1.0 1.0 0.00 0.06 0.06 69 1015.1
20260506020656 65 44 0.0 1.0 0.00 0.06 0.06 69 1015.0
20260506020154 65 28 2.0 2.0 0.00 0.06 0.06 68 1015.0
20260506015652 65 44 1.0 1.0 0.00 0.06 0.06 69 1015.0
20260506015149 65 94 2.0 6.0 0.00 0.06 0.06 69 1015.2
20260506014646 65 43 1.0 1.0 0.00 0.06 0.06 68 1014.9
20260506014142 66 43 1.0 2.0 0.00 0.06 0.06 68 1014.9
20260506013640 66 34 1.0 1.0 0.00 0.06 0.06 67 1014.9
20260506013137 67 83 1.0 1.0 0.00 0.06 0.06 66 1015.0
20260506012633 67 69 0.0 0.0 0.00 0.06 0.06 65 1015.0
20260506012130 67 85 1.0 1.0 0.00 0.06 0.06 65 1014.8
20260506011627 67 41 1.0 1.0 0.00 0.06 0.06 64 1014.8
20260506011123 68 101 1.0 1.0 0.00 0.06 0.06 63 1014.8
20260506010622 67 51 0.0 0.0 0.00 0.06 0.06 63 1014.7
20260506010119 67 115 0.0 1.0 0.00 0.06 0.06 63 1014.7
20260506005616 67 38 1.0 1.0 0.00 0.06 0.06 63 1014.7
20260506005112 67 42 1.0 2.0 0.00 0.06 0.06 63 1014.8
20260506004609 68 60 0.0 0.0 0.00 0.06 0.06 63 1014.8
20260506004106 68 49 1.0 1.0 0.00 0.06 0.06 62 1014.6
20260506003602 68 50 0.0 1.0 0.00 0.06 0.06 62 1014.7
20260506003058 68 54 2.0 2.0 0.00 0.06 0.06 61 1014.6
20260506002554 68 254 0.0 1.0 0.00 0.06 0.06 61 1014.5
20260506002050 68 56 1.0 1.0 0.00 0.06 0.06 61 1014.6
20260506001547 68 61 1.0 1.0 0.00 0.06 0.06 60 1014.6
20260506001044 68 50 1.0 1.0 0.00 0.06 0.06 60 1014.6
20260506000542 69 74 0.0 0.0 0.00 0.06 0.06 59 1014.4
20260506000039 69 67 1.0 1.0 0.00 0.06 0.06 58 1014.7
20260505235537 70 37 1.0 1.0 0.00 0.06 0.06 57 1014.7
20260505235033 71 101 1.0 1.0 0.00 0.06 0.06 55 1014.3
20260505234530 72 39 1.0 1.0 0.00 0.06 0.06 53 1014.7
20260505234027 71 10 0.0 1.0 0.00 0.06 0.06 54 1014.5
20260505233525 70 13 2.0 2.0 0.00 0.06 0.06 56 1014.5
20260505233022 69 44 0.0 0.0 0.00 0.06 0.06 58 1014.7
20260505232520 68 44 0.0 1.0 0.00 0.06 0.06 60 1014.3
20260505232017 68 22 0.0 0.0 0.00 0.06 0.06 60 1014.7
20260505231514 67 58 0.0 1.0 0.00 0.06 0.06 60 1014.5
20260505231013 68 184 1.0 1.0 0.00 0.06 0.06 60 1014.6
20260505230509 67 69 0.0 0.0 0.00 0.06 0.06 61 1014.6
20260505230006 67 49 0.0 1.0 0.00 0.06 0.06 60 1014.7
20260505225503 67 132 0.0 0.0 0.00 0.06 0.06 60 1014.7
20260505224959 67 128 0.0 0.0 0.00 0.06 0.06 60 1014.7
20260505224456 67 53 0.0 0.0 0.00 0.06 0.06 60 1014.7
20260505223953 68 45 0.0 1.0 0.00 0.06 0.06 61 1014.8
20260505223450 68 52 1.0 1.0 0.00 0.06 0.06 59 1014.8
20260505222946 67 254 0.0 0.0 0.00 0.06 0.06 59 1014.8
20260505222442 67 114 0.0 0.0 0.00 0.06 0.06 59 1014.8
20260505221938 68 15 0.0 0.0 0.00 0.06 0.06 59 1015.0
20260505221436 67 341 0.0 0.0 0.00 0.06 0.06 60 1015.0
20260505220933 67 54 0.0 0.0 0.00 0.06 0.06 60 1015.0
20260505220430 67 73 0.0 1.0 0.00 0.06 0.06 60 1015.1
20260505215927 67 24 0.0 1.0 0.00 0.06 0.06 60 1015.1
20260505215425 67 40 0.0 0.0 0.00 0.06 0.06 60 1015.0
20260505214923 66 43 0.0 1.0 0.00 0.06 0.06 60 1015.1
20260505214421 66 222 0.0 1.0 0.00 0.06 0.06 60 1015.2
20260505213918 67 208 0.0 0.0 0.00 0.06 0.06 60 1015.3
20260505213415 67 270 1.0 1.0 0.00 0.06 0.06 61 1015.3
20260505212911 67 52 1.0 1.0 0.00 0.06 0.06 60 1015.3
20260505212408 67 103 0.0 0.0 0.00 0.06 0.06 60 1015.3
20260505211905 67 269 0.0 0.0 0.00 0.06 0.06 60 1015.2
20260505211402 67 60 1.0 1.0 0.00 0.06 0.06 59 1015.2
20260505210858 67 83 0.0 1.0 0.00 0.06 0.06 60 1015.4
20260505210356 67 146 0.0 1.0 0.00 0.06 0.06 60 1015.2
20260505205852 67 78 0.0 1.0 0.00 0.06 0.06 60 1015.3
20260505205351 66 98 1.0 2.0 0.00 0.06 0.06 61 1015.2
20260505204847 67 74 1.0 1.0 0.00 0.06 0.06 60 1015.4
20260505204345 66 132 0.0 0.0 0.00 0.06 0.06 61 1015.3
20260505203842 67 45 1.0 2.0 0.00 0.06 0.06 59 1015.4
20260505203338 67 59 0.0 0.0 0.00 0.06 0.06 60 1015.3
20260505202835 67 44 1.0 1.0 0.00 0.06 0.06 61 1015.3
20260505202331 67 252 1.0 2.0 0.00 0.06 0.06 61 1015.4
20260505201828 66 207 0.0 0.0 0.00 0.06 0.06 62 1015.5
20260505201325 65 29 0.0 0.0 0.00 0.06 0.06 63 1015.5
20260505200824 65 268 0.0 1.0 0.00 0.06 0.06 63 1015.5
20260505200320 65 220 1.0 1.0 0.00 0.06 0.06 63 1015.6
20260505195815 65 192 3.0 3.0 0.00 0.06 0.06 63 1015.4
20260505195313 65 45 0.0 1.0 0.00 0.06 0.06 63 1015.7
20260505194810 65 45 1.0 1.0 0.00 0.06 0.06 62 1015.6
20260505194307 65 145 0.0 0.0 0.00 0.06 0.06 63 1015.6
20260505193802 65 19 0.0 1.0 0.00 0.06 0.06 63 1015.5
20260505193300 65 81 1.0 2.0 0.00 0.06 0.06 63 1015.7
20260505192758 65 231 2.0 3.0 0.00 0.06 0.06 64 1015.5
20260505192256 65 37 1.0 1.0 0.00 0.06 0.06 64 1015.5
20260505191754 65 52 1.0 1.0 0.00 0.06 0.06 64 1015.7
20260505191252 64 52 0.0 0.0 0.00 0.06 0.06 66 1015.7
20260505190748 64 47 1.0 1.0 0.00 0.06 0.06 66 1015.7
20260505190243 63 48 0.0 1.0 0.00 0.06 0.06 68 1015.7
20260505185740 63 47 1.0 1.0 0.00 0.06 0.06 70 1015.7
20260505185236 62 49 1.0 2.0 0.00 0.06 0.06 72 1015.6
20260505184732 62 34 0.0 0.0 0.00 0.06 0.06 71 1015.7
20260505184230 62 119 0.0 0.0 0.00 0.06 0.06 71 1015.5
20260505183726 62 302 1.0 1.0 0.00 0.06 0.06 72 1015.5
20260505183224 62 49 0.0 0.0 0.00 0.06 0.06 72 1015.4
20260505182720 62 54 0.0 0.0 0.00 0.06 0.06 71 1015.3
20260505182217 62 61 0.0 0.0 0.00 0.06 0.06 72 1015.5
20260505181713 62 76 0.0 0.0 0.00 0.06 0.06 73 1015.4
20260505181211 62 73 1.0 1.0 0.00 0.06 0.06 73 1015.6
20260505180708 61 169 0.0 1.0 0.00 0.06 0.06 73 1015.6
20260505180204 61 144 0.0 1.0 0.00 0.06 0.06 74 1015.4
20260505175700 61 216 1.0 1.0 0.00 0.06 0.06 75 1015.3
20260505175157 61 100 0.0 1.0 0.00 0.06 0.06 74 1015.2
20260505174653 62 100 0.0 1.0 0.00 0.06 0.06 74 1015.3
20260505174149 61 122 0.0 0.0 0.00 0.06 0.06 75 1015.2
20260505173646 60 52 0.0 0.0 0.00 0.06 0.06 75 1015.4
20260505173144 61 52 0.0 0.0 0.00 0.06 0.06 75 1015.3
20260505172641 61 54 0.0 1.0 0.00 0.06 0.06 76 1015.1
20260505172138 61 45 1.0 1.0 0.00 0.06 0.06 76 1015.3
20260505171637 61 40 0.0 0.0 0.00 0.06 0.06 75 1015.3
20260505171135 60 13 0.0 1.0 0.00 0.06 0.06 77 1015.2
20260505170632 60 24 0.0 1.0 0.00 0.06 0.06 78 1015.1
20260505170128 60 316 0.0 0.0 0.00 0.06 0.06 77 1015.4
20260505165623 60 40 0.0 0.0 0.00 0.06 0.06 78 1015.3
20260505165120 60 42 0.0 1.0 0.00 0.06 0.06 78 1015.1
20260505164615 59 41 0.0 1.0 0.00 0.06 0.06 80 1015.2
20260505164113 59 41 1.0 1.0 0.00 0.06 0.06 80 1015.0
20260505163611 59 42 1.0 1.0 0.00 0.06 0.06 80 1015.1
20260505163108 59 43 0.0 0.0 0.00 0.06 0.06 81 1015.0
20260505162606 58 43 0.0 1.0 0.00 0.06 0.06 82 1015.1
20260505162103 58 42 0.0 1.0 0.00 0.06 0.06 83 1015.1
20260505161600 58 42 1.0 1.0 0.00 0.06 0.06 83 1015.1
20260505161057 58 50 0.0 1.0 0.00 0.06 0.06 84 1015.2
20260505160555 57 39 1.0 1.0 0.00 0.06 0.06 85 1014.9
20260505153032 56 42 0.0 1.0 0.00 0.06 0.06 89 1015.1
20260505152529 56 42 1.0 1.0 0.00 0.06 0.06 89 1014.9
20260505152024 56 34 1.0 1.0 0.00 0.06 0.06 89 1014.8
20260505151519 56 34 1.0 1.0 0.00 0.06 0.06 90 1015.0
20260505151017 55 43 0.0 1.0 0.00 0.06 0.06 90 1014.9
20260505150513 55 46 0.0 1.0 0.00 0.06 0.06 90 1014.6
20260505140438 55 46 0.0 0.0 0.00 0.06 0.06 92 1014.3
20260505124852 54 48 1.0 1.0 0.00 0.06 0.06 93 1013.8
20260505124349 54 47 1.0 1.0 0.05 0.06 0.06 93 1013.6
20260505123845 54 51 0.0 0.0 0.05 0.06 0.06 93 1014.0
20260505123342 54 42 0.0 1.0 0.00 0.05 0.05 93 1013.9
20260505122837 54 47 0.0 0.0 0.00 0.05 0.05 93 1013.8
20260505122335 54 51 0.0 1.0 0.00 0.05 0.05 93 1013.8
20260505121832 54 38 0.0 1.0 0.00 0.05 0.05 93 1013.7
20260505121329 54 43 0.0 1.0 0.00 0.05 0.05 93 1013.9
20260505120825 54 46 0.0 1.0 0.00 0.05 0.05 94 1013.8
20260505120321 54 44 1.0 1.0 0.00 0.05 0.05 94 1013.7
20260505115820 54 45 0.0 0.0 0.00 0.05 0.05 94 1013.9
20260505115317 54 54 1.0 1.0 0.00 0.05 0.05 94 1014.1
20260505114815 54 49 0.0 1.0 0.00 0.05 0.05 94 1013.9
20260505114311 54 45 0.0 0.0 0.00 0.05 0.05 94 1014.1
20260505113808 54 47 1.0 1.0 0.00 0.05 0.05 94 1014.0
20260505113304 54 37 0.0 1.0 0.00 0.05 0.05 94 1013.9
20260505112800 54 43 1.0 1.0 0.00 0.05 0.05 94 1013.9
20260505112258 54 40 1.0 1.0 0.00 0.05 0.05 94 1014.0
20260505111758 54 40 0.0 1.0 0.00 0.05 0.05 94 1013.8
20260505111254 54 38 1.0 2.0 0.00 0.05 0.05 94 1014.0
20260505110750 54 41 0.0 1.0 0.00 0.05 0.05 94 1014.0
20260505110248 54 43 0.0 0.0 0.00 0.05 0.05 94 1014.0
20260505101722 54 66 0.0 0.0 0.00 0.05 0.05 95 1014.0
20260505101218 53 53 0.0 0.0 0.00 0.05 0.05 95 1014.0
20260505100714 54 49 0.0 0.0 0.00 0.05 0.05 94 1014.1
20260505100211 54 58 0.0 0.0 0.00 0.05 0.05 95 1013.9
20260505095707 54 52 0.0 1.0 0.00 0.05 0.05 94 1014.0
20260505095205 53 51 0.0 1.0 0.00 0.05 0.05 95 1014.3
20260505094700 53 47 1.0 1.0 0.00 0.05 0.05 94 1014.2
20260505094157 54 47 0.0 0.0 0.00 0.05 0.05 94 1014.3
20260505093653 54 58 0.0 1.0 0.07 0.05 0.05 94 1014.2
20260505093151 54 44 0.0 0.0 0.07 0.05 0.05 94 1014.4
20260505092647 54 45 1.0 1.0 0.07 0.05 0.05 94 1014.4
20260505092146 54 57 1.0 1.0 0.00 0.04 0.04 94 1014.2
20260505091643 54 43 0.0 0.0 0.00 0.04 0.04 94 1014.3